Regional Weather Roundup
Issued by NWS

Home | Current Version | Previous Version | Graphics & Text | Print | Product List | Glossary On
Versions: 1 2 3 4 5 6 7 8 9 10 11 12 13 14 15 16 17 18 19 20 21 22 23 24 25 26 27 28 29 30 31 32 33 34 35 36 37 38 39 40 41 42 43 44 45 46 47 48
000
ASUS45 KPSR 240310
RWRAZ

ARIZONA REGIONAL HOURLY WEATHER ROUNDUP
NATIONAL WEATHER SERVICE TUCSON AZ
800 PM MST TUE MAY 23 2017

NOTE: FAIR INDICATES FEW OR NO CLOUDS BELOW 12,000 FEET WITH NO
SIGNIFICANT WEATHER AND/OR OBSTRUCTIONS TO VISIBILITY.

AZZ001>003-036-240400-
NORTHWEST ARIZONA

CITY           SKY/WX    TMP DP  RH WIND       PRES   REMARKS
BULLHEAD CITY  CLEAR    102  25   6 CALM      29.71S
KINGMAN        CLEAR     81  24  12 MISG      29.95S
$$

AZZ004>008-015-016-018-240400-
NORTH CENTRAL ARIZONA

CITY           SKY/WX    TMP DP  RH WIND       PRES   REMARKS
GRAND CANYON   CLEAR     53  26  35 CALM      30.21R HAZE
WILLIAMS       CLEAR     64  21  19 CALM      30.21R
PRESCOTT       CLEAR     76  23  14 CALM      30.06R
FLAGSTAFF      PTCLDY    62  26  25 E3        30.22R
PAGE           CLEAR     77  36  22 NE5       30.00S
$$

AZZ009>014-017-240400-
NORTHEAST ARIZONA

CITY           SKY/WX    TMP DP  RH WIND       PRES   REMARKS
WINSLOW        CLEAR     74  21  13 NW6       30.07S
SAINT JOHNS    CLEAR     69  24  18 NW8       30.10R
WINDOW ROCK    CLEAR     62  23  22 NW7       30.19R
SHOW LOW       CLEAR     63  25  23 N6        30.19R
$$

AZZ023-240400-
GREATER PHOENIX AREA

CITY           SKY/WX    TMP DP  RH WIND       PRES   REMARKS
PHOENIX        MOCLDY    97  23   7 SW6       29.73R
BUCKEYE        CLEAR     90  36  14 SW5       29.74R
GLENDALE       MOCLDY    97  14   5 S6        29.74S
LUKE AFB       CLEAR     96  19   6 SW8       29.72S
DEER VALLEY    CLEAR     94  18   6 S5        29.75S
SCOTTSDALE     CLEAR     95  24   8 S3        29.78R
MESA-FALCON    PTCLDY    93  34  12 SW7       29.77
MESA-GATEWAY   PTCLDY    93  25   8 SW6       29.77R
CHANDLER       CLEAR     95  25   8 SW8       29.75S
$$

AZZ027-028-240400-
SOUTHWEST MARICOPA COUNTY AND PINAL COUNTY

CITY           SKY/WX    TMP DP  RH WIND       PRES   REMARKS
CASA GRANDE    PTCLDY    93  21   7 NW7       29.79R
$$

AZZ503-504-507>509-240400-
SOUTHEAST ARIZONA

CITY           SKY/WX    TMP DP  RH WIND       PRES   REMARKS
TUCSON         PTCLDY    92  22   8 N9        29.88R
DAVIS-MONTHAN  CLEAR     90  19   7 N10       29.87R
RYAN FIELD     CLEAR     91  25   9 N7        29.87R
NOGALES        CLEAR     84  17   8 NW7       29.97R
SIERRA VISTA   CLEAR     77  16  10 W10       30.03S
DOUGLAS        CLEAR     78  15   9 NW10      29.97R
SAFFORD        CLEAR     84  18   8 NW7       29.86R
$$

AZZ020-021-025-026-031-240400-
SOUTHWEST ARIZONA

CITY           SKY/WX    TMP DP  RH WIND       PRES   REMARKS
YUMA           CLEAR     98  37  12 W5        29.70R
$$

CAZ031-033-041-043-047-048-061-240400-
SOUTHERN CALIFORNIA

CITY           SKY/WX    TMP DP  RH WIND       PRES   REMARKS
DOWNTOWN L.A.  CLEAR     64  57  78 CALM      29.89R
L.A. AIRPORT   CLOUDY    60  57  89 W12       29.90R
SAN DIEGO      PTCLDY    65  60  84 NW12      29.92R
BURBANK        CLEAR     71  55  56 E10       29.87R
ONTARIO        PTCLDY    78  51  38 SW12      29.89R
RIVERSIDE      CLEAR     79  52  38 W5        29.88R
PALM SPRINGS   CLEAR    101  35  10 NW15      29.74S
EL CENTRO NAS  PTCLDY    98  29   8 W20       29.72R
IMPERIAL       CLEAR     96  40  14 W18       29.69R
BLYTHE         CLEAR     99  33  10 S7        29.71R
NEEDLES        CLEAR    100  22   6 CALM      29.74R
$$

NVZ020-UTZ003-240400-
SOUTHERN NEVADA-UTAH

CITY           SKY/WX    TMP DP  RH WIND       PRES   REMARKS
LAS VEGAS      PTCLDY    95  21   7 E3        29.82R
SALT LAKE CITY PTCLDY    75  40  28 NE3       30.01F
$$

NMZ009-TXZ055-240400-
NEW MEXICO-WEST TEXAS

CITY           SKY/WX    TMP DP  RH WIND       PRES   REMARKS
ALBUQUERQUE    PTCLDY    71  17  12 N14       30.06R
EL PASO        PTCLDY    72  37  28 E15       29.97R
$$


........................KEY........................
SKY/WX - SKY CONDITION/WEATHER
TMP    - TEMPERATURE IN FAHRENHEIT
DP     - DEWPOINT IN FAHRENHEIT
RH     - RELATIVE HUMIDITY IN PERCENT
WIND   - DIRECTION AND SPEED IN MILES PER HOUR (MPH)
VRB    - VARIABLE WIND DIRECTION
PRES   - MEAN SEA LEVEL PRESSURE IN INCHES OF MERCURY
         F - FALLING PRESSURE   R - RISING PRESSURE
         S - STEADY PRESSURE
VSB    - VISIBILITY IN MILES
HX     - HEAT INDEX IN FAHRENHEIT
WCI    - WIND CHILL INDEX IN FAHRENHEIT
TC     - TEMPERATURE IN CELSIUS WHICH IS ALSO KNOWN AS
         TEMPERATURE IN CENTIGRADE
AFB    - AIR FORCE BASE
         LUKE AFB IS LUKE AIR FORCE BASE
         DAVIS-MONTHAN IS DAVIS-MONTHAN AIR FORCE BASE
NAS    - NAVAL AIR STATION
         EL CENTRO NAS IS EL CENTRO NAVAL AIR STATION
N/A    - NOT AVAILABLE





USA.gov is the U.S. government's official web portal to all federal, state and local government web resources and services.